Flag for Brazil Weather past 2 weeks in Londrina, Paraná, Brazil

Now
59 °F

Fog.


Feels Like: 59 °F
Forecast: 57 / 81 °F
Wind: 5 mph from South

Location: Londrina Aeroporto

Current Time: Aug 28, 2015 at 10:13:20 AM

Latest Report: Aug 28, 2015 at 9:00 AM


Visibility: 0 mi

Pressure: 30.21 "Hg (28.09 "Hg at 615m altitude)

Humidity: 94%

Dew point: 57 °F

Location of LondrinaLocation

Historic Weather in Londrina — Graph

°F

Londrina temperature yesterday

Maximum temperature yesterday: 70 °F (at 12:00 AM)
Minimum temperature yesterday: 61 °F (at 7:00 AM)
Average temperature yesterday: 65 °F

Past Weeks' High & Low Weather Summary

 TemperatureHumidityPressure
High90 °F (Aug 23, 3:00 PM)100% (Aug 24, 4:00 PM)30.24 "Hg (Aug 24, 4:00 PM)
Low43 °F (Aug 24, 11:00 PM)25% (Aug 16, 3:00 PM)29.92 "Hg (Aug 26, 5:00 PM)
Average68 °F66%30.08 "Hg
* Reported Aug 13 9:00 AM — Aug 28 9:00 AM, Londrina, Weather by CustomWeather, © 2015

Note: Actual official high and low records may vary slightly from our data, if they occured in-between our weather recording intervals... More about our weather records

Advertising

Londrina weather history for previous 24 hours

 ConditionsComfort  
Time TempWeatherWind HumidityBarometerVisibility
9:00 AM
Fri, Aug 28
59 °FFog.5 mph94%30.21 "Hg0 mi
8:00 AM57 °FFog.5 mph100%30.18 "Hg0 mi
7:00 AM57 °FFog.5 mph100%30.15 "Hg0 mi
6:00 AM59 °FFog.5 mph94%30.12 "Hg0 mi
5:00 AM59 °FFog.2 mph94%30.12 "Hg0 mi
4:00 AM59 °FFog.3 mph94%30.12 "Hg0 mi
3:00 AM59 °FFog.5 mph100%30.15 "Hg1 mi
2:00 AM59 °FFog.2 mph94%30.15 "Hg1 mi
1:00 AM59 °FFog.2 mph100%30.15 "Hg2 mi
12:00 AM59 °FClear.3 mph100%30.15 "Hg10 mi
11:00 PM
Thu, Aug 27
61 °FClear.2 mph94%30.18 "Hg10 mi
10:00 PM61 °FClear.2 mph94%30.18 "Hg10 mi
9:00 PM63 °FClear.2 mph88%30.15 "Hg10 mi
8:00 PM63 °FPassing clouds.2 mph88%30.15 "HgN/A
7:00 PM63 °FPassing clouds.5 mph94%30.12 "HgN/A
6:00 PM64 °FPartly cloudy.3 mph88%30.09 "HgN/A
5:00 PM66 °FBroken clouds.8 mph83%30.07 "HgN/A
4:00 PM68 °FBroken clouds.6 mph78%30.07 "HgN/A
3:00 PM68 °FBroken clouds.5 mph78%30.09 "HgN/A
2:00 PM68 °FBroken clouds.5 mph73%30.04 "HgN/A
1:00 PM68 °FScattered clouds.6 mph73%30.09 "HgN/A
12:00 PM64 °FPassing clouds.9 mph83%30.09 "HgN/A
11:00 AM64 °FPartly sunny.6 mph83%30.12 "HgN/A
10:00 AM66 °FBroken clouds.5 mph68%30.09 "HgN/A
Weather by CustomWeather, © 2015

See weather overviewHow to use our weather pages